Location: Bijele Vode
(45.2833°N, 16.2000°E)
Time: 21:02:17
(UTC+00:00)

NOSS 2-2 (E) - Pass Details

Date: 18 September 2020
Orbit: 468 x 1739 km, 63.3° (Epoch: 26 October)

Event Time Altitude Azimuth Distance (km) Brightness Sun altitude
Rises 17:22:26 0° 188° (S) 2,513 6.7 -4.8°
Reaches altitude 10° 17:24:44 10° 175° (S) 1,619 5.6 -5.2°
Maximum altitude 17:27:40 26° 117° (ESE) 983 4.1 -5.7°
Drops below altitude 10° 17:30:48 10° 60° (ENE) 1,736 5.4 -6.2°
Sets 17:33:22 0° 47° (NE) 2,742 6.5 -6.7°
